Weather History for Hickory, NC

Change the Weather History Date:

Sunday, August 10, 2014

  Actual Average Record
Temperature  
Mean Temperature 66 °F -  
Max Temperature 69 °F 85 °F 102 °F (2007)
Min Temperature 64 °F 67 °F 54 °F (1989)
Cooling Degree Days 1    
Growing Degree Days 16 (Base 50)    
Moisture  
Dew Point 65 °F    
Average Humidity 95    
Maximum Humidity 100    
Minimum Humidity 90    
Precipitation  
Precipitation 0.85 in - - ()
Sea Level Pressure  
Sea Level Pressure 30.08 in    
Wind  
Wind Speed 5 mph (NE)    
Max Wind Speed 8 mph    
Max Gust Speed -    
Visibility 5 miles    
Events Rain    
Averages and records for this station are not official NWS values.
T = Trace of Precipitation, MM = Missing Value Source: NWS Daily Summary

Daily Weather History Graph

Daily Weather History Graph

Search for Another Location

Airport:

Trip Planner

Search our weather history database for the weather conditions in past years. The results will help you decide how hot, cold, wet, or windy it might be!

Date:

Astronomy

Aug. 10, 2014 Rise Set
Actual Time 6:40 AM EDT 8:20 PM EDT
Civil Twilight 6:12 AM EDT 8:48 PM EDT
Nautical Twilight 5:39 AM EDT 9:21 PM EDT
Astronomical Twilight 5:04 AM EDT 9:56 PM EDT
Moon 8:09 PM EDT (8/10) 6:29 AM EDT (8/10)
Length of Visible Light 14h 35m
Length of Day
13h 40m
Full, 100% of the Moon is Illuminated
Aug 10
Full
Aug 10
Full
Aug 17
Last Quarter
Aug 25
New
Sep 2
First Quarter

Hourly Weather History & Observations

Time (EDT) Temp. Dew Point Humidity Pressure Visibility Wind Dir Wind Speed Gust Speed Precip Events Conditions
12:01 AM 64.9 °F 62.1 °F 90% 30.13 in 8.0 mi NE 5.8 mph - N/A   Overcast
12:28 AM 64.0 °F 62.1 °F 93% 30.12 in 6.0 mi NNE 6.9 mph - N/A   Overcast
12:53 AM 64.0 °F 62.1 °F 93% 30.06 in 8.0 mi NE 6.9 mph - N/A   Overcast
1:10 AM 64.9 °F 62.1 °F 90% 30.12 in 9.0 mi NNE 5.8 mph - N/A   Overcast
1:53 AM 64.0 °F 62.1 °F 93% 30.05 in 10.0 mi NE 5.8 mph - N/A   Overcast
2:53 AM 64.0 °F 62.1 °F 93% 30.04 in 8.0 mi NNE 4.6 mph - N/A   Overcast
3:53 AM 64.0 °F 63.0 °F 96% 30.03 in 6.0 mi North 4.6 mph - N/A   Overcast
5:53 AM 64.9 °F 63.0 °F 93% 30.01 in 10.0 mi NE 6.9 mph - 0.01 in   Overcast
6:53 AM 64.9 °F 63.0 °F 93% 30.05 in 7.0 mi NE 5.8 mph - 0.00 in   Overcast
7:29 AM 64.9 °F 64.0 °F 97% 30.11 in 2.0 mi Calm Calm - N/A   Overcast
7:37 AM 64.9 °F 64.0 °F 97% 30.11 in 1.5 mi North 3.5 mph - 0.00 in Rain Light Rain
8:46 AM 64.9 °F 64.0 °F 97% 30.13 in 3.0 mi North 3.5 mph - 0.16 in Rain Light Rain
8:53 AM 64.9 °F 64.0 °F 97% 30.08 in 1.5 mi Calm Calm - 0.16 in Rain Light Rain
10:00 AM 66.0 °F 64.0 °F 93% 30.12 in 6.0 mi North 4.6 mph - 0.00 in Rain Light Rain
10:11 AM 66.0 °F 64.9 °F 96% 30.12 in 2.0 mi NNE 4.6 mph - 0.00 in Rain Light Rain
10:53 AM 66.0 °F 64.9 °F 96% 30.09 in 2.0 mi North 4.6 mph - 0.01 in Rain Rain
11:00 AM 66.0 °F 64.9 °F 96% 30.14 in 3.0 mi North 5.8 mph - 0.01 in Rain Light Rain
11:53 AM 66.9 °F 64.9 °F 93% 30.08 in 10.0 mi NNE 4.6 mph - 0.03 in Rain Light Rain
12:34 PM 66.9 °F 64.9 °F 93% 30.13 in 2.0 mi NE 5.8 mph - 0.01 in Rain Light Rain
12:47 PM 66.2 °F 64.4 °F 94% 30.13 in 2.0 mi NE 6.9 mph - 0.02 in Rain Light Rain
12:53 PM 66.9 °F 64.9 °F 93% 30.08 in 2.0 mi NE 4.6 mph - 0.02 in Rain Light Rain
1:53 PM 68.0 °F 66.0 °F 93% 30.07 in 2.0 mi NE 5.8 mph - 0.00 in Rain Light Rain
2:00 PM 68.0 °F 66.0 °F 93% 30.12 in 8.0 mi NNE 6.9 mph - 0.00 in Rain Light Rain
2:51 PM 66.2 °F 66.2 °F 100% 30.12 in 6.0 mi NNE 8.1 mph - 0.02 in Rain Light Rain
2:53 PM 66.9 °F 66.0 °F 97% 30.06 in 7.0 mi NNE 8.1 mph - 0.02 in Rain Light Rain
3:01 PM 66.9 °F 66.0 °F 97% 30.11 in 10.0 mi NNE 5.8 mph - 0.00 in Rain Light Rain
3:10 PM 68.0 °F 66.0 °F 93% 30.11 in 10.0 mi NE 8.1 mph - 0.00 in Rain Light Rain
3:20 PM 66.9 °F 66.0 °F 97% 30.11 in 10.0 mi NE 4.6 mph - 0.00 in Rain Light Rain
3:53 PM 66.9 °F 66.0 °F 97% 30.05 in 4.0 mi NE 3.5 mph - 0.02 in Rain Light Rain
4:19 PM 66.9 °F 66.0 °F 97% 30.09 in 3.0 mi NE 4.6 mph - 0.02 in Rain Light Rain
4:26 PM 66.9 °F 66.0 °F 97% 30.09 in 2.0 mi NE 4.6 mph - 0.03 in Rain Rain
4:53 PM 68.0 °F 66.0 °F 93% 30.03 in 4.0 mi NE 6.9 mph - 0.06 in Rain Light Rain
5:00 PM 68.0 °F 66.0 °F 93% 30.08 in 6.0 mi NE 8.1 mph - 0.00 in Rain Light Rain
5:12 PM 68.0 °F 66.0 °F 93% 30.08 in 9.0 mi NE 4.6 mph - 0.00 in   Overcast
5:44 PM 68.0 °F 66.0 °F 93% 30.09 in 10.0 mi NE 4.6 mph - 0.00 in   Overcast
5:53 PM 68.0 °F 66.0 °F 93% 30.04 in 10.0 mi NE 4.6 mph - 0.00 in   Overcast
6:35 PM 68.0 °F 66.9 °F 96% 30.09 in 6.0 mi NNE 3.5 mph - 0.00 in Rain Light Rain
6:53 PM 68.0 °F 66.0 °F 93% 30.03 in 10.0 mi NE 5.8 mph - 0.01 in   Overcast
7:27 PM 68.0 °F 66.9 °F 96% 30.08 in 2.0 mi NE 4.6 mph - 0.01 in Rain Light Rain
7:41 PM 68.0 °F 66.9 °F 96% 30.08 in 4.0 mi NE 4.6 mph - 0.01 in Rain Light Rain
8:30 PM 68.0 °F 66.9 °F 96% 30.08 in 2.5 mi ENE 3.5 mph - 0.07 in Rain Rain
8:53 PM 68.0 °F 66.9 °F 96% 30.03 in 2.5 mi Calm Calm - 0.14 in Rain Light Rain
9:00 PM 68.0 °F 66.9 °F 96% 30.08 in 3.0 mi Calm Calm - 0.03 in Rain Heavy Rain
9:05 PM 68.0 °F 66.9 °F 96% 30.08 in 1.8 mi NE 3.5 mph - 0.07 in Rain Heavy Rain
9:20 PM 68.0 °F 66.9 °F 96% 30.08 in 2.5 mi NNE 3.5 mph - 0.13 in Rain Rain
9:28 PM 68.0 °F 66.9 °F 96% 30.08 in 3.0 mi Calm Calm - 0.16 in Rain Heavy Rain
9:30 PM 68.0 °F 66.9 °F 96% 30.08 in 2.5 mi Calm Calm - 0.17 in Rain Heavy Rain
9:53 PM 68.0 °F 66.9 °F 96% 30.04 in 2.5 mi Calm Calm - 0.26 in Rain Rain
10:11 PM 68.0 °F 66.9 °F 96% 30.10 in 3.0 mi NNE 3.5 mph - 0.06 in Rain Rain
10:53 PM 68.0 °F 66.9 °F 96% 30.05 in 4.0 mi NNE 3.5 mph - 0.11 in Rain Rain
11:23 PM 68.0 °F 66.9 °F 96% 30.10 in 2.5 mi NE 3.5 mph - 0.08 in Rain Heavy Rain
11:34 PM 68.0 °F 66.9 °F 96% 30.10 in 4.0 mi NE 3.5 mph - 0.09 in Rain Rain